EW1476 Weather Reports


time (UTC)temp
C
wind
direction
speed
KPH
gust
KPH
rain 1hr
cm
rain 24hr
cm
rain mn
cm
humidity
%
barometer
mb
20260505153022 23 255 1.6 6.4 0.00 0.00 0.00 45 1012.3
20260505151514 23 203 0.0 6.4 0.00 0.00 0.00 44 1012.2
20260505124523 16 228 0.0 0.0 0.00 0.00 0.00 62 1013.0
20260505123023 16 207 0.0 0.0 0.00 0.00 0.00 63 1013.0
20260505121518 15 265 0.0 0.0 0.00 0.00 0.00 65 1013.0
20260505120015 15 209 0.0 0.0 0.00 0.00 0.00 66 1012.8
20260505114527 13 196 0.0 0.0 0.00 0.00 0.00 68 1012.7
20260505113009 13 195 0.0 0.0 0.00 0.00 0.00 69 1012.5
20260505111508 13 195 0.0 0.0 0.00 0.00 0.00 71 1012.4
20260505101516 13 195 0.0 0.0 0.00 0.00 0.00 69 1011.7
20260505100012 13 195 0.0 0.0 0.00 0.00 0.00 68 1011.7
20260505094510 13 195 0.0 0.0 0.00 0.00 0.00 68 1011.6
20260505093009 13 195 0.0 0.0 0.00 0.00 0.00 68 1011.5
20260505091532 13 195 0.0 0.0 0.00 0.00 0.00 68 1011.4
20260505090022 14 195 0.0 0.0 0.00 0.00 0.00 68 1011.4
20260505084520 14 200 0.0 0.0 0.00 0.00 0.00 68 1011.3
20260505083020 14 200 0.0 0.0 0.00 0.00 0.00 69 1011.4
20260505081511 14 200 0.0 0.0 0.00 0.00 0.00 68 1011.4
20260505080023 15 210 0.0 0.0 0.00 0.00 0.00 67 1011.2
20260505074526 15 211 0.0 0.0 0.00 0.00 0.00 66 1011.1
20260505073024 15 212 0.0 0.0 0.00 0.00 0.00 65 1011.1
20260505071519 15 157 0.0 0.0 0.00 0.00 0.00 64 1011.0
20260505070018 15 156 0.0 1.6 0.00 0.00 0.00 65 1011.0
20260505064514 15 148 0.0 1.6 0.00 0.00 0.00 65 1011.1
20260505063010 15 207 0.0 0.0 0.00 0.00 0.00 65 1011.2
20260505061537 15 207 0.0 0.0 0.00 0.00 0.00 65 1011.3
20260505060027 16 207 0.0 0.0 0.00 0.00 0.00 64 1011.2
20260505054524 16 207 0.0 0.0 0.00 0.00 0.00 63 1011.2
20260505053022 16 207 0.0 0.0 0.00 0.00 0.00 62 1011.3
20260505051516 16 207 0.0 1.6 0.00 0.00 0.00 61 1011.3
20260505041506 16 217 0.0 1.6 0.00 0.00 0.00 58 1011.2
20260505040006 16 194 0.0 0.0 0.00 0.00 0.00 57 1011.2
20260505034520 17 208 0.0 0.0 0.00 0.00 0.00 55 1011.1
20260505033019 17 213 0.0 0.0 0.00 0.00 0.00 54 1011.2
20260505031514 17 219 0.0 0.0 0.00 0.00 0.00 53 1011.3
20260505030012 17 220 0.0 0.0 0.00 0.00 0.00 52 1011.2
20260505024517 17 213 0.0 0.0 0.00 0.00 0.00 52 1011.2
20260505023022 18 213 0.0 0.0 0.00 0.00 0.00 51 1011.2
20260505021524 18 214 0.0 0.0 0.00 0.00 0.00 50 1011.1
20260505020021 18 214 0.0 0.0 0.00 0.00 0.00 48 1011.0
20260505014515 19 214 0.0 0.0 0.00 0.00 0.00 47 1011.0
20260505013021 19 213 0.0 1.6 0.00 0.00 0.00 47 1010.7
20260505011508 20 205 0.0 1.6 0.00 0.00 0.00 45 1010.6
20260505010024 20 201 0.0 1.6 0.00 0.00 0.00 45 1010.3
20260505004526 20 208 0.0 3.2 0.00 0.00 0.00 45 1010.2
20260505003020 20 211 0.0 3.2 0.00 0.00 0.00 43 1010.2
20260505001518 20 219 0.0 3.2 0.00 0.00 0.00 44 1010.2
20260505000027 20 201 0.0 3.2 0.00 0.00 0.00 42 1010.2
20260504234509 21 207 0.0 1.6 0.00 0.00 0.00 41 1010.1
20260504233025 21 220 1.6 4.8 0.00 0.00 0.00 39 1010.0
20260504231531 21 207 0.0 3.2 0.00 0.00 0.00 38 1010.0
20260504230024 22 205 0.0 4.8 0.00 0.00 0.00 39 1010.1
20260504224522 22 191 0.0 1.6 0.00 0.00 0.00 40 1010.0
20260504223015 22 228 0.0 6.4 0.00 0.00 0.00 37 1010.0
20260504221530 22 203 1.6 4.8 0.00 0.00 0.00 36 1009.8
20260504220017 22 208 0.0 3.2 0.00 0.00 0.00 38 1009.9
20260504214509 22 217 1.6 3.2 0.00 0.00 0.00 38 1009.8
20260504213009 22 241 1.6 3.2 0.00 0.00 0.00 34 1010.0
20260504211503 22 191 0.0 6.4 0.00 0.00 0.00 37 1010.0
20260504210004 22 235 1.6 4.8 0.00 0.00 0.00 35 1010.1
20260504204503 22 170 1.6 3.2 0.00 0.00 0.00 36 1010.0
20260504203020 22 209 1.6 4.8 0.00 0.00 0.00 35 1010.1
20260504201508 21 207 0.0 4.8 0.00 0.00 0.00 36 1010.3
20260504200004 22 103 0.0 6.4 0.00 0.00 0.00 36 1010.6
20260504194503 22 147 1.6 6.4 0.00 0.00 0.00 40 1010.8
20260504193009 22 210 1.6 8.0 0.00 0.00 0.00 40 1011.0
20260504191503 22 226 1.6 4.8 0.00 0.00 0.00 37 1011.3
20260504190014 21 245 1.6 6.4 0.00 0.00 0.00 37 1011.5
20260504184512 21 300 3.2 6.4 0.00 0.00 0.00 38 1011.8
20260504183008 21 135 1.6 6.4 0.00 0.00 0.00 37 1011.9
20260504181503 21 238 1.6 3.2 0.00 0.00 0.00 37 1012.3
20260504180009 21 187 1.6 4.8 0.00 0.00 0.00 37 1012.5
20260504174520 20 155 0.0 6.4 0.00 0.00 0.00 39 1012.7
20260504173020 20 238 0.0 4.8 0.00 0.00 0.00 37 1012.8
20260504171512 20 165 1.6 6.4 0.00 0.00 0.00 38 1012.9